Regional Weather Roundup
Issued by NWS

Home | Current Version | Previous Version | Graphics & Text | Print | Product List | Glossary On
Versions: 1 2 3 4 5 6 7 8 9 10 11 12 13 14 15 16 17 18 19 20 21 22 23 24 25 26 27 28 29 30 31 32 33 34 35 36 37 38 39 40 41 42 43 44 45 46 47 48 49 50
000
ASUS43 KBIS 301102
RWRND

NORTH DAKOTA REGIONAL WEATHER ROUNDUP
NATIONAL WEATHER SERVICE BISMARCK ND
600 AM CDT THU JUL 30 2015

NOTE: "FAIR" INDICATES FEW OR NO CLOUDS BELOW 12,000 FEET WITH NO
SIGNIFICANT WEATHER AND/OR OBSTRUCTIONS TO VISIBILITY.


NDZ001>003-009>011-017-301200-
NORTHWEST NORTH DAKOTA

CITY           SKY/WX    TMP DP  RH WIND       PRES   REMARKS
WILLISTON      CLEAR     53  50  89 S3        30.13S
MINOT          CLOUDY    61  52  72 W8        30.07S
MINOT AFB      DRIZZLE   59  59  99 W8        30.06F
$$

NDZ018>021-031>035-040>046-301200-
SOUTHWEST NORTH DAKOTA

CITY           SKY/WX    TMP DP  RH WIND       PRES   REMARKS
BISMARCK       CLEAR     56  49  77 W5        30.12R
DICKINSON      CLEAR     54  44  69 SW3       30.15S
GARRISON         N/A     53  50  89 NW6       30.12R
HETTINGER ARPT CLEAR     49  43  80 W3        30.20S
$$

NDZ004>008-012>016-024-026-027-054-301200-
NORTHEAST NORTH DAKOTA

CITY           SKY/WX    TMP DP  RH WIND       PRES   REMARKS
GRAND FORKS    CLEAR     62  56  80 W8        29.96R
GRND FRKS AFB  CLEAR     63  56  78 W8        29.98R
DEVILS LAKE    PTCLDY    63  50  63 W13       30.02R
$$

NDZ022-023-025-028>030-036>039-047>053-301200-
SOUTHEAST NORTH DAKOTA

CITY           SKY/WX    TMP DP  RH WIND       PRES   REMARKS
FARGO          CLEAR     59  55  87 W9        30.01R
JAMESTOWN      CLEAR     58  52  80 W8        30.07R
$$



USA.gov is the U.S. government's official web portal to all federal, state and local government web resources and services.